owner,sensor,date,latitude,longitude,vertical_datum,sea_water_temperature,qcFlag 
ENP,ioos.station.NOAA.NDBC:MUKF1:1,2016-06-01T00:00:00Z,25.1060,-80.9420,1.0,30.35,2 
ENP,ioos.station.NOAA.NDBC:MUKF1:1,2016-06-01T01:00:00Z,25.1060,-80.9420,1.0,30.17,2 
ENP,ioos.station.NOAA.NDBC:MUKF1:1,2016-06-01T04:00:00Z,25.1060,-80.9420,1.0,29.47,2 
ENP,ioos.station.NOAA.NDBC:MUKF1:1,2016-06-01T07:00:00Z,25.1060,-80.9420,1.0,29.08,2 
ENP,ioos.station.NOAA.NDBC:MUKF1:1,2016-06-01T08:00:00Z,25.1060,-80.9420,1.0,28.63,2 
ENP,ioos.station.NOAA.NDBC:MUKF1:1,2016-06-01T09:00:00Z,25.1060,-80.9420,1.0,28.31,2 
ENP,ioos.station.NOAA.NDBC:MUKF1:1,2016-06-01T10:00:00Z,25.1060,-80.9420,1.0,28.06,2 
ENP,ioos.station.NOAA.NDBC:MUKF1:1,2016-06-01T11:00:00Z,25.1060,-80.9420,1.0,27.78,2 
ENP,ioos.station.NOAA.NDBC:MUKF1:1,2016-06-01T12:00:00Z,25.1060,-80.9420,1.0,27.67,2 
ENP,ioos.station.NOAA.NDBC:MUKF1:1,2016-06-01T13:00:00Z,25.1060,-80.9420,1.0,27.9,2 
ENP,ioos.station.NOAA.NDBC:MUKF1:1,2016-06-01T14:00:00Z,25.1060,-80.9420,1.0,28.63,2 
ENP,ioos.station.NOAA.NDBC:MUKF1:1,2016-06-01T15:00:00Z,25.1060,-80.9420,1.0,29.11,2 
ENP,ioos.station.NOAA.NDBC:MUKF1:1,2016-06-01T16:00:00Z,25.1060,-80.9420,1.0,29.53,2 
ENP,ioos.station.NOAA.NDBC:MUKF1:1,2016-06-01T17:00:00Z,25.1060,-80.9420,1.0,29.81,2 
ENP,ioos.station.NOAA.NDBC:MUKF1:1,2016-06-01T18:00:00Z,25.1060,-80.9420,1.0,30.07,2 
ENP,ioos.station.NOAA.NDBC:MUKF1:1,2016-06-01T19:00:00Z,25.1060,-80.9420,1.0,30.77,2 
ENP,ioos.station.NOAA.NDBC:MUKF1:1,2016-06-01T20:00:00Z,25.1060,-80.9420,1.0,31.55,2 
ENP,ioos.station.NOAA.NDBC:MUKF1:1,2016-06-01T21:00:00Z,25.1060,-80.9420,1.0,31.7,2 
ENP,ioos.station.NOAA.NDBC:MUKF1:1,2016-06-01T22:00:00Z,25.1060,-80.9420,1.0,31.69,2 
ENP,ioos.station.NOAA.NDBC:MUKF1:1,2016-06-01T23:00:00Z,25.1060,-80.9420,1.0,31.28,2 
ENP,ioos.station.NOAA.NDBC:MUKF1:1,2016-06-02T00:00:00Z,25.1060,-80.9420,1.0,30.69,2 
ENP,ioos.station.NOAA.NDBC:MUKF1:1,2016-06-02T01:00:00Z,25.1060,-80.9420,1.0,30.01,2 
ENP,ioos.station.NOAA.NDBC:MUKF1:1,2016-06-02T04:00:00Z,25.1060,-80.9420,1.0,29.99,2 
ENP,ioos.station.NOAA.NDBC:MUKF1:1,2016-06-02T07:00:00Z,25.1060,-80.9420,1.0,29.76,2 
ENP,ioos.station.NOAA.NDBC:MUKF1:1,2016-06-02T08:00:00Z,25.1060,-80.9420,1.0,29.55,2 
ENP,ioos.station.NOAA.NDBC:MUKF1:1,2016-06-02T09:00:00Z,25.1060,-80.9420,1.0,29.15,2 
ENP,ioos.station.NOAA.NDBC:MUKF1:1,2016-06-02T11:00:00Z,25.1060,-80.9420,1.0,28.5,2 
ENP,ioos.station.NOAA.NDBC:MUKF1:1,2016-06-02T12:00:00Z,25.1060,-80.9420,1.0,28.12,2 
ENP,ioos.station.NOAA.NDBC:MUKF1:1,2016-06-02T13:00:00Z,25.1060,-80.9420,1.0,28.07,2 
ENP,ioos.station.NOAA.NDBC:MUKF1:1,2016-06-02T14:00:00Z,25.1060,-80.9420,1.0,28.77,2 
ENP,ioos.station.NOAA.NDBC:MUKF1:1,2016-06-02T15:00:00Z,25.1060,-80.9420,1.0,29.51,2 
ENP,ioos.station.NOAA.NDBC:MUKF1:1,2016-06-02T16:00:00Z,25.1060,-80.9420,1.0,29.88,2 
ENP,ioos.station.NOAA.NDBC:MUKF1:1,2016-06-02T17:00:00Z,25.1060,-80.9420,1.0,30.1,2 
ENP,ioos.station.NOAA.NDBC:MUKF1:1,2016-06-02T18:00:00Z,25.1060,-80.9420,1.0,30.22,2 
ENP,ioos.station.NOAA.NDBC:MUKF1:1,2016-06-02T19:00:00Z,25.1060,-80.9420,1.0,30.54,2 
ENP,ioos.station.NOAA.NDBC:MUKF1:1,2016-06-02T20:00:00Z,25.1060,-80.9420,1.0,31.29,2 
ENP,ioos.station.NOAA.NDBC:MUKF1:1,2016-06-02T21:00:00Z,25.1060,-80.9420,1.0,31.95,2 
ENP,ioos.station.NOAA.NDBC:MUKF1:1,2016-06-02T22:00:00Z,25.1060,-80.9420,1.0,32.7,2 
ENP,ioos.station.NOAA.NDBC:MUKF1:1,2016-06-02T23:00:00Z,25.1060,-80.9420,1.0,32.55,2 
ENP,ioos.station.NOAA.NDBC:MUKF1:1,2016-06-03T00:00:00Z,25.1060,-80.9420,1.0,32.0,2 
ENP,ioos.station.NOAA.NDBC:MUKF1:1,2016-06-03T01:00:00Z,25.1060,-80.9420,1.0,31.38,2 
ENP,ioos.station.NOAA.NDBC:MUKF1:1,2016-06-03T04:00:00Z,25.1060,-80.9420,1.0,30.05,2 
ENP,ioos.station.NOAA.NDBC:MUKF1:1,2016-06-03T05:00:00Z,25.1060,-80.9420,1.0,31.16,2 
ENP,ioos.station.NOAA.NDBC:MUKF1:1,2016-06-03T07:00:00Z,25.1060,-80.9420,1.0,30.49,2 
ENP,ioos.station.NOAA.NDBC:MUKF1:1,2016-06-03T08:00:00Z,25.1060,-80.9420,1.0,30.26,2 
ENP,ioos.station.NOAA.NDBC:MUKF1:1,2016-06-03T09:00:00Z,25.1060,-80.9420,1.0,30.16,2 
ENP,ioos.station.NOAA.NDBC:MUKF1:1,2016-06-03T10:00:00Z,25.1060,-80.9420,1.0,29.77,2 
ENP,ioos.station.NOAA.NDBC:MUKF1:1,2016-06-03T11:00:00Z,25.1060,-80.9420,1.0,29.51,2 
ENP,ioos.station.NOAA.NDBC:MUKF1:1,2016-06-03T12:00:00Z,25.1060,-80.9420,1.0,29.29,2 
ENP,ioos.station.NOAA.NDBC:MUKF1:1,2016-06-03T13:00:00Z,25.1060,-80.9420,1.0,29.26,2 
ENP,ioos.station.NOAA.NDBC:MUKF1:1,2016-06-03T14:00:00Z,25.1060,-80.9420,1.0,29.25,2 
ENP,ioos.station.NOAA.NDBC:MUKF1:1,2016-06-03T15:00:00Z,25.1060,-80.9420,1.0,30.46,2 
ENP,ioos.station.NOAA.NDBC:MUKF1:1,2016-06-03T16:00:00Z,25.1060,-80.9420,1.0,30.63,2 
ENP,ioos.station.NOAA.NDBC:MUKF1:1,2016-06-03T17:00:00Z,25.1060,-80.9420,1.0,30.75,2 
ENP,ioos.station.NOAA.NDBC:MUKF1:1,2016-06-03T18:00:00Z,25.1060,-80.9420,1.0,30.73,2 
ENP,ioos.station.NOAA.NDBC:MUKF1:1,2016-06-03T19:00:00Z,25.1060,-80.9420,1.0,30.91,2 
ENP,ioos.station.NOAA.NDBC:MUKF1:1,2016-06-03T20:00:00Z,25.1060,-80.9420,1.0,31.26,2 
ENP,ioos.station.NOAA.NDBC:MUKF1:1,2016-06-03T21:00:00Z,25.1060,-80.9420,1.0,31.8,2 
ENP,ioos.station.NOAA.NDBC:MUKF1:1,2016-06-03T22:00:00Z,25.1060,-80.9420,1.0,31.8,2 
ENP,ioos.station.NOAA.NDBC:MUKF1:1,2016-06-03T23:00:00Z,25.1060,-80.9420,1.0,31.75,2 
ENP,ioos.station.NOAA.NDBC:MUKF1:1,2016-06-04T00:00:00Z,25.1060,-80.9420,1.0,31.33,2 
ENP,ioos.station.NOAA.NDBC:MUKF1:1,2016-06-04T01:00:00Z,25.1060,-80.9420,1.0,30.82,2 
ENP,ioos.station.NOAA.NDBC:MUKF1:1,2016-06-04T04:00:00Z,25.1060,-80.9420,1.0,29.42,2 
ENP,ioos.station.NOAA.NDBC:MUKF1:1,2016-06-04T07:00:00Z,25.1060,-80.9420,1.0,30.5,2 
ENP,ioos.station.NOAA.NDBC:MUKF1:1,2016-06-04T08:00:00Z,25.1060,-80.9420,1.0,30.28,2 
ENP,ioos.station.NOAA.NDBC:MUKF1:1,2016-06-04T09:00:00Z,25.1060,-80.9420,1.0,30.15,2 
ENP,ioos.station.NOAA.NDBC:MUKF1:1,2016-06-04T10:00:00Z,25.1060,-80.9420,1.0,29.8,2 
ENP,ioos.station.NOAA.NDBC:MUKF1:1,2016-06-04T11:00:00Z,25.1060,-80.9420,1.0,29.52,2 
ENP,ioos.station.NOAA.NDBC:MUKF1:1,2016-06-04T12:00:00Z,25.1060,-80.9420,1.0,29.28,2 
ENP,ioos.station.NOAA.NDBC:MUKF1:1,2016-06-04T13:00:00Z,25.1060,-80.9420,1.0,29.32,2 
ENP,ioos.station.NOAA.NDBC:MUKF1:1,2016-06-04T14:00:00Z,25.1060,-80.9420,1.0,29.64,2 
ENP,ioos.station.NOAA.NDBC:MUKF1:1,2016-06-04T15:00:00Z,25.1060,-80.9420,1.0,29.64,2 
ENP,ioos.station.NOAA.NDBC:MUKF1:1,2016-06-04T16:00:00Z,25.1060,-80.9420,1.0,30.78,2 
ENP,ioos.station.NOAA.NDBC:MUKF1:1,2016-06-04T17:00:00Z,25.1060,-80.9420,1.0,30.65,2 
ENP,ioos.station.NOAA.NDBC:MUKF1:1,2016-06-04T18:00:00Z,25.1060,-80.9420,1.0,30.9,2 
ENP,ioos.station.NOAA.NDBC:MUKF1:1,2016-06-04T19:00:00Z,25.1060,-80.9420,1.0,30.84,2 
ENP,ioos.station.NOAA.NDBC:MUKF1:1,2016-06-04T20:00:00Z,25.1060,-80.9420,1.0,30.94,2 
ENP,ioos.station.NOAA.NDBC:MUKF1:1,2016-06-04T21:00:00Z,25.1060,-80.9420,1.0,31.1,2 
ENP,ioos.station.NOAA.NDBC:MUKF1:1,2016-06-04T22:00:00Z,25.1060,-80.9420,1.0,31.44,2 
ENP,ioos.station.NOAA.NDBC:MUKF1:1,2016-06-04T23:00:00Z,25.1060,-80.9420,1.0,31.4,2 
ENP,ioos.station.NOAA.NDBC:MUKF1:1,2016-06-05T00:00:00Z,25.1060,-80.9420,1.0,30.87,2 
ENP,ioos.station.NOAA.NDBC:MUKF1:1,2016-06-05T01:00:00Z,25.1060,-80.9420,1.0,30.36,2 
ENP,ioos.station.NOAA.NDBC:MUKF1:1,2016-06-05T04:00:00Z,25.1060,-80.9420,1.0,28.69,2 
ENP,ioos.station.NOAA.NDBC:MUKF1:1,2016-06-05T07:00:00Z,25.1060,-80.9420,1.0,29.7,2 
ENP,ioos.station.NOAA.NDBC:MUKF1:1,2016-06-05T08:00:00Z,25.1060,-80.9420,1.0,29.89,2 
ENP,ioos.station.NOAA.NDBC:MUKF1:1,2016-06-05T09:00:00Z,25.1060,-80.9420,1.0,29.71,2 
ENP,ioos.station.NOAA.NDBC:MUKF1:1,2016-06-05T11:00:00Z,25.1060,-80.9420,1.0,29.25,2 
ENP,ioos.station.NOAA.NDBC:MUKF1:1,2016-06-05T12:00:00Z,25.1060,-80.9420,1.0,29.0,2 
ENP,ioos.station.NOAA.NDBC:MUKF1:1,2016-06-05T13:00:00Z,25.1060,-80.9420,1.0,28.98,2 
ENP,ioos.station.NOAA.NDBC:MUKF1:1,2016-06-05T14:00:00Z,25.1060,-80.9420,1.0,29.26,2 
ENP,ioos.station.NOAA.NDBC:MUKF1:1,2016-06-05T15:00:00Z,25.1060,-80.9420,1.0,29.64,2 
ENP,ioos.station.NOAA.NDBC:MUKF1:1,2016-06-05T16:00:00Z,25.1060,-80.9420,1.0,30.02,2 
ENP,ioos.station.NOAA.NDBC:MUKF1:1,2016-06-05T17:00:00Z,25.1060,-80.9420,1.0,29.73,2 
ENP,ioos.station.NOAA.NDBC:MUKF1:1,2016-06-05T18:00:00Z,25.1060,-80.9420,1.0,29.85,2 
ENP,ioos.station.NOAA.NDBC:MUKF1:1,2016-06-05T19:00:00Z,25.1060,-80.9420,1.0,29.88,2 
ENP,ioos.station.NOAA.NDBC:MUKF1:1,2016-06-05T20:00:00Z,25.1060,-80.9420,1.0,29.96,2 
ENP,ioos.station.NOAA.NDBC:MUKF1:1,2016-06-05T21:00:00Z,25.1060,-80.9420,1.0,29.99,2 
ENP,ioos.station.NOAA.NDBC:MUKF1:1,2016-06-05T22:00:00Z,25.1060,-80.9420,1.0,29.93,2 
ENP,ioos.station.NOAA.NDBC:MUKF1:1,2016-06-05T23:00:00Z,25.1060,-80.9420,1.0,29.84,2 
ENP,ioos.station.NOAA.NDBC:MUKF1:1,2016-06-06T00:00:00Z,25.1060,-80.9420,1.0,29.57,2 
ENP,ioos.station.NOAA.NDBC:MUKF1:1,2016-06-06T01:00:00Z,25.1060,-80.9420,1.0,29.29,2 
ENP,ioos.station.NOAA.NDBC:MUKF1:1,2016-06-06T02:00:00Z,25.1060,-80.9420,1.0,29.0,2 
ENP,ioos.station.NOAA.NDBC:MUKF1:1,2016-06-06T04:00:00Z,25.1060,-80.9420,1.0,28.43,2 
ENP,ioos.station.NOAA.NDBC:MUKF1:1,2016-06-06T05:00:00Z,25.1060,-80.9420,1.0,28.19,2 
ENP,ioos.station.NOAA.NDBC:MUKF1:1,2016-06-06T07:00:00Z,25.1060,-80.9420,1.0,28.45,2 
ENP,ioos.station.NOAA.NDBC:MUKF1:1,2016-06-06T08:00:00Z,25.1060,-80.9420,1.0,28.85,2 
ENP,ioos.station.NOAA.NDBC:MUKF1:1,2016-06-06T09:00:00Z,25.1060,-80.9420,1.0,28.79,2 
ENP,ioos.station.NOAA.NDBC:MUKF1:1,2016-06-06T10:00:00Z,25.1060,-80.9420,1.0,28.73,2 
ENP,ioos.station.NOAA.NDBC:MUKF1:1,2016-06-06T11:00:00Z,25.1060,-80.9420,1.0,28.59,2 
ENP,ioos.station.NOAA.NDBC:MUKF1:1,2016-06-06T12:00:00Z,25.1060,-80.9420,1.0,28.36,2 
ENP,ioos.station.NOAA.NDBC:MUKF1:1,2016-06-06T13:00:00Z,25.1060,-80.9420,1.0,28.23,2 
ENP,ioos.station.NOAA.NDBC:MUKF1:1,2016-06-06T14:00:00Z,25.1060,-80.9420,1.0,28.26,2 
ENP,ioos.station.NOAA.NDBC:MUKF1:1,2016-06-06T15:00:00Z,25.1060,-80.9420,1.0,28.61,2 
ENP,ioos.station.NOAA.NDBC:MUKF1:1,2016-06-06T16:00:00Z,25.1060,-80.9420,1.0,28.83,2 
ENP,ioos.station.NOAA.NDBC:MUKF1:1,2016-06-06T17:00:00Z,25.1060,-80.9420,1.0,29.19,2 
ENP,ioos.station.NOAA.NDBC:MUKF1:1,2016-06-06T18:00:00Z,25.1060,-80.9420,1.0,29.25,2 
ENP,ioos.station.NOAA.NDBC:MUKF1:1,2016-06-06T19:00:00Z,25.1060,-80.9420,1.0,28.98,2 
ENP,ioos.station.NOAA.NDBC:MUKF1:1,2016-06-06T20:00:00Z,25.1060,-80.9420,1.0,29.02,2 
ENP,ioos.station.NOAA.NDBC:MUKF1:1,2016-06-06T22:00:00Z,25.1060,-80.9420,1.0,29.04,2 
ENP,ioos.station.NOAA.NDBC:MUKF1:1,2016-06-06T23:00:00Z,25.1060,-80.9420,1.0,28.9,2 
ENP,ioos.station.NOAA.NDBC:MUKF1:1,2016-06-07T00:00:00Z,25.1060,-80.9420,1.0,28.73,2 
ENP,ioos.station.NOAA.NDBC:MUKF1:1,2016-06-07T01:00:00Z,25.1060,-80.9420,1.0,28.4,2 
ENP,ioos.station.NOAA.NDBC:MUKF1:1,2016-06-07T04:00:00Z,25.1060,-80.9420,1.0,27.87,2 
ENP,ioos.station.NOAA.NDBC:MUKF1:1,2016-06-07T07:00:00Z,25.1060,-80.9420,1.0,27.55,2 
ENP,ioos.station.NOAA.NDBC:MUKF1:1,2016-06-07T08:00:00Z,25.1060,-80.9420,1.0,27.76,2 
ENP,ioos.station.NOAA.NDBC:MUKF1:1,2016-06-07T09:00:00Z,25.1060,-80.9420,1.0,27.89,2 
ENP,ioos.station.NOAA.NDBC:MUKF1:1,2016-06-07T11:00:00Z,25.1060,-80.9420,1.0,27.84,2 
ENP,ioos.station.NOAA.NDBC:MUKF1:1,2016-06-07T12:00:00Z,25.1060,-80.9420,1.0,27.77,2 
ENP,ioos.station.NOAA.NDBC:MUKF1:1,2016-06-07T13:00:00Z,25.1060,-80.9420,1.0,27.66,2 
ENP,ioos.station.NOAA.NDBC:MUKF1:1,2016-06-07T14:00:00Z,25.1060,-80.9420,1.0,27.84,2 
ENP,ioos.station.NOAA.NDBC:MUKF1:1,2016-06-07T15:00:00Z,25.1060,-80.9420,1.0,28.28,2 
ENP,ioos.station.NOAA.NDBC:MUKF1:1,2016-06-07T16:00:00Z,25.1060,-80.9420,1.0,28.73,2 
ENP,ioos.station.NOAA.NDBC:MUKF1:1,2016-06-07T17:00:00Z,25.1060,-80.9420,1.0,28.91,2 
ENP,ioos.station.NOAA.NDBC:MUKF1:1,2016-06-07T18:00:00Z,25.1060,-80.9420,1.0,29.41,2 
ENP,ioos.station.NOAA.NDBC:MUKF1:1,2016-06-07T19:00:00Z,25.1060,-80.9420,1.0,29.23,2 
ENP,ioos.station.NOAA.NDBC:MUKF1:1,2016-06-07T20:00:00Z,25.1060,-80.9420,1.0,29.29,2 
ENP,ioos.station.NOAA.NDBC:MUKF1:1,2016-06-07T21:00:00Z,25.1060,-80.9420,1.0,29.5,2 
ENP,ioos.station.NOAA.NDBC:MUKF1:1,2016-06-07T22:00:00Z,25.1060,-80.9420,1.0,29.51,2 
ENP,ioos.station.NOAA.NDBC:MUKF1:1,2016-06-07T23:00:00Z,25.1060,-80.9420,1.0,29.35,2 
ENP,ioos.station.NOAA.NDBC:MUKF1:1,2016-06-08T00:00:00Z,25.1060,-80.9420,1.0,29.28,2 
ENP,ioos.station.NOAA.NDBC:MUKF1:1,2016-06-08T01:00:00Z,25.1060,-80.9420,1.0,29.08,2 
ENP,ioos.station.NOAA.NDBC:MUKF1:1,2016-06-08T04:00:00Z,25.1060,-80.9420,1.0,28.4,2 
ENP,ioos.station.NOAA.NDBC:MUKF1:1,2016-06-08T07:00:00Z,25.1060,-80.9420,1.0,27.75,2 
ENP,ioos.station.NOAA.NDBC:MUKF1:1,2016-06-08T08:00:00Z,25.1060,-80.9420,1.0,27.63,2 
ENP,ioos.station.NOAA.NDBC:MUKF1:1,2016-06-08T09:00:00Z,25.1060,-80.9420,1.0,28.1,2 
ENP,ioos.station.NOAA.NDBC:MUKF1:1,2016-06-08T10:00:00Z,25.1060,-80.9420,1.0,28.07,2 
ENP,ioos.station.NOAA.NDBC:MUKF1:1,2016-06-08T11:00:00Z,25.1060,-80.9420,1.0,27.99,2 
ENP,ioos.station.NOAA.NDBC:MUKF1:1,2016-06-08T12:00:00Z,25.1060,-80.9420,1.0,27.96,2 
ENP,ioos.station.NOAA.NDBC:MUKF1:1,2016-06-08T13:00:00Z,25.1060,-80.9420,1.0,27.84,2 
ENP,ioos.station.NOAA.NDBC:MUKF1:1,2016-06-08T14:00:00Z,25.1060,-80.9420,1.0,27.8,2 
ENP,ioos.station.NOAA.NDBC:MUKF1:1,2016-06-08T15:00:00Z,25.1060,-80.9420,1.0,28.05,2 
ENP,ioos.station.NOAA.NDBC:MUKF1:1,2016-06-08T16:00:00Z,25.1060,-80.9420,1.0,28.88,2 
ENP,ioos.station.NOAA.NDBC:MUKF1:1,2016-06-08T17:00:00Z,25.1060,-80.9420,1.0,29.33,2 
ENP,ioos.station.NOAA.NDBC:MUKF1:1,2016-06-08T18:00:00Z,25.1060,-80.9420,1.0,29.22,2 
ENP,ioos.station.NOAA.NDBC:MUKF1:1,2016-06-08T19:00:00Z,25.1060,-80.9420,1.0,28.83,2 
ENP,ioos.station.NOAA.NDBC:MUKF1:1,2016-06-08T20:00:00Z,25.1060,-80.9420,1.0,28.6,2 
ENP,ioos.station.NOAA.NDBC:MUKF1:1,2016-06-08T21:00:00Z,25.1060,-80.9420,1.0,28.8,2 
ENP,ioos.station.NOAA.NDBC:MUKF1:1,2016-06-08T22:00:00Z,25.1060,-80.9420,1.0,28.85,2 
ENP,ioos.station.NOAA.NDBC:MUKF1:1,2016-06-08T23:00:00Z,25.1060,-80.9420,1.0,28.75,2 
ENP,ioos.station.NOAA.NDBC:MUKF1:1,2016-06-09T00:00:00Z,25.1060,-80.9420,1.0,28.6,2 
ENP,ioos.station.NOAA.NDBC:MUKF1:1,2016-06-09T01:00:00Z,25.1060,-80.9420,1.0,28.31,2 
ENP,ioos.station.NOAA.NDBC:MUKF1:1,2016-06-09T04:00:00Z,25.1060,-80.9420,1.0,27.85,2 
ENP,ioos.station.NOAA.NDBC:MUKF1:1,2016-06-09T07:00:00Z,25.1060,-80.9420,1.0,27.34,2 
ENP,ioos.station.NOAA.NDBC:MUKF1:1,2016-06-09T08:00:00Z,25.1060,-80.9420,1.0,27.39,2 
ENP,ioos.station.NOAA.NDBC:MUKF1:1,2016-06-09T09:00:00Z,25.1060,-80.9420,1.0,27.12,2 
ENP,ioos.station.NOAA.NDBC:MUKF1:1,2016-06-09T10:00:00Z,25.1060,-80.9420,1.0,28.01,2 
ENP,ioos.station.NOAA.NDBC:MUKF1:1,2016-06-09T11:00:00Z,25.1060,-80.9420,1.0,27.95,2 
ENP,ioos.station.NOAA.NDBC:MUKF1:1,2016-06-09T12:00:00Z,25.1060,-80.9420,1.0,27.85,2 
ENP,ioos.station.NOAA.NDBC:MUKF1:1,2016-06-09T13:00:00Z,25.1060,-80.9420,1.0,27.89,2 
ENP,ioos.station.NOAA.NDBC:MUKF1:1,2016-06-09T14:00:00Z,25.1060,-80.9420,1.0,28.04,2 
ENP,ioos.station.NOAA.NDBC:MUKF1:1,2016-06-09T15:00:00Z,25.1060,-80.9420,1.0,28.44,2 
ENP,ioos.station.NOAA.NDBC:MUKF1:1,2016-06-09T16:00:00Z,25.1060,-80.9420,1.0,28.8,2 
ENP,ioos.station.NOAA.NDBC:MUKF1:1,2016-06-09T17:00:00Z,25.1060,-80.9420,1.0,28.94,2 
ENP,ioos.station.NOAA.NDBC:MUKF1:1,2016-06-09T18:00:00Z,25.1060,-80.9420,1.0,29.13,2 
ENP,ioos.station.NOAA.NDBC:MUKF1:1,2016-06-09T19:00:00Z,25.1060,-80.9420,1.0,28.89,2 
ENP,ioos.station.NOAA.NDBC:MUKF1:1,2016-06-09T20:00:00Z,25.1060,-80.9420,1.0,29.07,2 
ENP,ioos.station.NOAA.NDBC:MUKF1:1,2016-06-09T21:00:00Z,25.1060,-80.9420,1.0,28.99,2 
ENP,ioos.station.NOAA.NDBC:MUKF1:1,2016-06-09T22:00:00Z,25.1060,-80.9420,1.0,28.74,2 
ENP,ioos.station.NOAA.NDBC:MUKF1:1,2016-06-09T23:00:00Z,25.1060,-80.9420,1.0,28.67,2 
ENP,ioos.station.NOAA.NDBC:MUKF1:1,2016-06-10T00:00:00Z,25.1060,-80.9420,1.0,28.65,2 
ENP,ioos.station.NOAA.NDBC:MUKF1:1,2016-06-10T01:00:00Z,25.1060,-80.9420,1.0,28.6,2 
ENP,ioos.station.NOAA.NDBC:MUKF1:1,2016-06-10T04:00:00Z,25.1060,-80.9420,1.0,28.18,2 
ENP,ioos.station.NOAA.NDBC:MUKF1:1,2016-06-10T07:00:00Z,25.1060,-80.9420,1.0,27.86,2 
ENP,ioos.station.NOAA.NDBC:MUKF1:1,2016-06-10T08:00:00Z,25.1060,-80.9420,1.0,27.86,2 
ENP,ioos.station.NOAA.NDBC:MUKF1:1,2016-06-10T09:00:00Z,25.1060,-80.9420,1.0,27.8,2 
ENP,ioos.station.NOAA.NDBC:MUKF1:1,2016-06-10T10:00:00Z,25.1060,-80.9420,1.0,27.87,2 
ENP,ioos.station.NOAA.NDBC:MUKF1:1,2016-06-10T11:00:00Z,25.1060,-80.9420,1.0,28.2,2 
ENP,ioos.station.NOAA.NDBC:MUKF1:1,2016-06-10T12:00:00Z,25.1060,-80.9420,1.0,28.05,2 
ENP,ioos.station.NOAA.NDBC:MUKF1:1,2016-06-10T13:00:00Z,25.1060,-80.9420,1.0,28.23,2 
ENP,ioos.station.NOAA.NDBC:MUKF1:1,2016-06-10T14:00:00Z,25.1060,-80.9420,1.0,28.36,2 
ENP,ioos.station.NOAA.NDBC:MUKF1:1,2016-06-10T15:00:00Z,25.1060,-80.9420,1.0,28.96,2 
ENP,ioos.station.NOAA.NDBC:MUKF1:1,2016-06-10T16:00:00Z,25.1060,-80.9420,1.0,29.63,2 
ENP,ioos.station.NOAA.NDBC:MUKF1:1,2016-06-10T17:00:00Z,25.1060,-80.9420,1.0,30.77,2 
ENP,ioos.station.NOAA.NDBC:MUKF1:1,2016-06-10T18:00:00Z,25.1060,-80.9420,1.0,31.91,2 
ENP,ioos.station.NOAA.NDBC:MUKF1:1,2016-06-10T19:00:00Z,25.1060,-80.9420,1.0,32.46,2 
ENP,ioos.station.NOAA.NDBC:MUKF1:1,2016-06-10T20:00:00Z,25.1060,-80.9420,1.0,31.97,2 
ENP,ioos.station.NOAA.NDBC:MUKF1:1,2016-06-10T21:00:00Z,25.1060,-80.9420,1.0,31.58,2 
ENP,ioos.station.NOAA.NDBC:MUKF1:1,2016-06-10T22:00:00Z,25.1060,-80.9420,1.0,30.74,2 
ENP,ioos.station.NOAA.NDBC:MUKF1:1,2016-06-10T23:00:00Z,25.1060,-80.9420,1.0,30.39,2 
ENP,ioos.station.NOAA.NDBC:MUKF1:1,2016-06-11T00:00:00Z,25.1060,-80.9420,1.0,30.13,2 
ENP,ioos.station.NOAA.NDBC:MUKF1:1,2016-06-11T01:00:00Z,25.1060,-80.9420,1.0,30.16,2 
ENP,ioos.station.NOAA.NDBC:MUKF1:1,2016-06-11T04:00:00Z,25.1060,-80.9420,1.0,29.76,2 
ENP,ioos.station.NOAA.NDBC:MUKF1:1,2016-06-11T07:00:00Z,25.1060,-80.9420,1.0,29.45,2 
ENP,ioos.station.NOAA.NDBC:MUKF1:1,2016-06-11T08:00:00Z,25.1060,-80.9420,1.0,29.21,2 
ENP,ioos.station.NOAA.NDBC:MUKF1:1,2016-06-11T09:00:00Z,25.1060,-80.9420,1.0,29.36,2 
ENP,ioos.station.NOAA.NDBC:MUKF1:1,2016-06-11T11:00:00Z,25.1060,-80.9420,1.0,29.33,2 
ENP,ioos.station.NOAA.NDBC:MUKF1:1,2016-06-11T12:00:00Z,25.1060,-80.9420,1.0,29.48,2 
ENP,ioos.station.NOAA.NDBC:MUKF1:1,2016-06-11T13:00:00Z,25.1060,-80.9420,1.0,29.34,2 
ENP,ioos.station.NOAA.NDBC:MUKF1:1,2016-06-11T14:00:00Z,25.1060,-80.9420,1.0,29.53,2 
ENP,ioos.station.NOAA.NDBC:MUKF1:1,2016-06-11T15:00:00Z,25.1060,-80.9420,1.0,29.78,2 
ENP,ioos.station.NOAA.NDBC:MUKF1:1,2016-06-11T16:00:00Z,25.1060,-80.9420,1.0,30.57,2 
ENP,ioos.station.NOAA.NDBC:MUKF1:1,2016-06-11T17:00:00Z,25.1060,-80.9420,1.0,30.61,2 
ENP,ioos.station.NOAA.NDBC:MUKF1:1,2016-06-11T18:00:00Z,25.1060,-80.9420,1.0,30.81,2 
ENP,ioos.station.NOAA.NDBC:MUKF1:1,2016-06-11T19:00:00Z,25.1060,-80.9420,1.0,31.69,2 
ENP,ioos.station.NOAA.NDBC:MUKF1:1,2016-06-11T20:00:00Z,25.1060,-80.9420,1.0,32.5,2 
ENP,ioos.station.NOAA.NDBC:MUKF1:1,2016-06-11T21:00:00Z,25.1060,-80.9420,1.0,32.43,2 
ENP,ioos.station.NOAA.NDBC:MUKF1:1,2016-06-11T22:00:00Z,25.1060,-80.9420,1.0,32.32,2 
ENP,ioos.station.NOAA.NDBC:MUKF1:1,2016-06-11T23:00:00Z,25.1060,-80.9420,1.0,31.7,2 
ENP,ioos.station.NOAA.NDBC:MUKF1:1,2016-06-12T00:00:00Z,25.1060,-80.9420,1.0,31.26,2 
ENP,ioos.station.NOAA.NDBC:MUKF1:1,2016-06-12T01:00:00Z,25.1060,-80.9420,1.0,30.83,2 
ENP,ioos.station.NOAA.NDBC:MUKF1:1,2016-06-12T04:00:00Z,25.1060,-80.9420,1.0,30.45,2 
ENP,ioos.station.NOAA.NDBC:MUKF1:1,2016-06-12T07:00:00Z,25.1060,-80.9420,1.0,29.81,2 
ENP,ioos.station.NOAA.NDBC:MUKF1:1,2016-06-12T08:00:00Z,25.1060,-80.9420,1.0,29.56,2 
ENP,ioos.station.NOAA.NDBC:MUKF1:1,2016-06-12T09:00:00Z,25.1060,-80.9420,1.0,29.43,2 
ENP,ioos.station.NOAA.NDBC:MUKF1:1,2016-06-12T11:00:00Z,25.1060,-80.9420,1.0,29.0,2 
ENP,ioos.station.NOAA.NDBC:MUKF1:1,2016-06-12T12:00:00Z,25.1060,-80.9420,1.0,29.39,2 
ENP,ioos.station.NOAA.NDBC:MUKF1:1,2016-06-12T13:00:00Z,25.1060,-80.9420,1.0,29.61,2 
ENP,ioos.station.NOAA.NDBC:MUKF1:1,2016-06-12T14:00:00Z,25.1060,-80.9420,1.0,29.83,2 
ENP,ioos.station.NOAA.NDBC:MUKF1:1,2016-06-12T15:00:00Z,25.1060,-80.9420,1.0,30.08,2 
ENP,ioos.station.NOAA.NDBC:MUKF1:1,2016-06-12T16:00:00Z,25.1060,-80.9420,1.0,30.38,2 
ENP,ioos.station.NOAA.NDBC:MUKF1:1,2016-06-12T17:00:00Z,25.1060,-80.9420,1.0,31.55,2 
ENP,ioos.station.NOAA.NDBC:MUKF1:1,2016-06-12T18:00:00Z,25.1060,-80.9420,1.0,32.28,2 
ENP,ioos.station.NOAA.NDBC:MUKF1:1,2016-06-12T19:00:00Z,25.1060,-80.9420,1.0,32.93,2 
ENP,ioos.station.NOAA.NDBC:MUKF1:1,2016-06-12T20:00:00Z,25.1060,-80.9420,1.0,33.55,2 
ENP,ioos.station.NOAA.NDBC:MUKF1:1,2016-06-12T21:00:00Z,25.1060,-80.9420,1.0,33.6,2 
ENP,ioos.station.NOAA.NDBC:MUKF1:1,2016-06-12T22:00:00Z,25.1060,-80.9420,1.0,33.37,2 
ENP,ioos.station.NOAA.NDBC:MUKF1:1,2016-06-12T23:00:00Z,25.1060,-80.9420,1.0,32.74,2 
ENP,ioos.station.NOAA.NDBC:MUKF1:1,2016-06-13T00:00:00Z,25.1060,-80.9420,1.0,32.28,2 
ENP,ioos.station.NOAA.NDBC:MUKF1:1,2016-06-13T01:00:00Z,25.1060,-80.9420,1.0,31.71,2 
ENP,ioos.station.NOAA.NDBC:MUKF1:1,2016-06-13T02:00:00Z,25.1060,-80.9420,1.0,31.19,2 
ENP,ioos.station.NOAA.NDBC:MUKF1:1,2016-06-13T04:00:00Z,25.1060,-80.9420,1.0,30.94,2 
ENP,ioos.station.NOAA.NDBC:MUKF1:1,2016-06-13T05:00:00Z,25.1060,-80.9420,1.0,30.8,2 
ENP,ioos.station.NOAA.NDBC:MUKF1:1,2016-06-13T07:00:00Z,25.1060,-80.9420,1.0,30.27,2 
ENP,ioos.station.NOAA.NDBC:MUKF1:1,2016-06-13T08:00:00Z,25.1060,-80.9420,1.0,30.01,2 
ENP,ioos.station.NOAA.NDBC:MUKF1:1,2016-06-13T09:00:00Z,25.1060,-80.9420,1.0,29.71,2 
ENP,ioos.station.NOAA.NDBC:MUKF1:1,2016-06-13T11:00:00Z,25.1060,-80.9420,1.0,29.72,2 
ENP,ioos.station.NOAA.NDBC:MUKF1:1,2016-06-13T12:00:00Z,25.1060,-80.9420,1.0,29.49,2 
ENP,ioos.station.NOAA.NDBC:MUKF1:1,2016-06-13T13:00:00Z,25.1060,-80.9420,1.0,30.0,2 
ENP,ioos.station.NOAA.NDBC:MUKF1:1,2016-06-13T14:00:00Z,25.1060,-80.9420,1.0,30.34,2 
ENP,ioos.station.NOAA.NDBC:MUKF1:1,2016-06-13T15:00:00Z,25.1060,-80.9420,1.0,30.52,2 
ENP,ioos.station.NOAA.NDBC:MUKF1:1,2016-06-13T16:00:00Z,25.1060,-80.9420,1.0,30.69,2 
ENP,ioos.station.NOAA.NDBC:MUKF1:1,2016-06-13T17:00:00Z,25.1060,-80.9420,1.0,31.14,2 
ENP,ioos.station.NOAA.NDBC:MUKF1:1,2016-06-13T18:00:00Z,25.1060,-80.9420,1.0,32.14,2 
ENP,ioos.station.NOAA.NDBC:MUKF1:1,2016-06-13T19:00:00Z,25.1060,-80.9420,1.0,32.97,2 
ENP,ioos.station.NOAA.NDBC:MUKF1:1,2016-06-13T20:00:00Z,25.1060,-80.9420,1.0,32.7,2 
ENP,ioos.station.NOAA.NDBC:MUKF1:1,2016-06-13T21:00:00Z,25.1060,-80.9420,1.0,32.16,2 
ENP,ioos.station.NOAA.NDBC:MUKF1:1,2016-06-13T22:00:00Z,25.1060,-80.9420,1.0,31.8,2 
ENP,ioos.station.NOAA.NDBC:MUKF1:1,2016-06-13T23:00:00Z,25.1060,-80.9420,1.0,31.78,2 
ENP,ioos.station.NOAA.NDBC:MUKF1:1,2016-06-14T00:00:00Z,25.1060,-80.9420,1.0,31.96,2 
ENP,ioos.station.NOAA.NDBC:MUKF1:1,2016-06-14T01:00:00Z,25.1060,-80.9420,1.0,31.69,2 
ENP,ioos.station.NOAA.NDBC:MUKF1:1,2016-06-14T04:00:00Z,25.1060,-80.9420,1.0,31.05,2 
ENP,ioos.station.NOAA.NDBC:MUKF1:1,2016-06-14T07:00:00Z,25.1060,-80.9420,1.0,30.46,2 
ENP,ioos.station.NOAA.NDBC:MUKF1:1,2016-06-14T08:00:00Z,25.1060,-80.9420,1.0,30.22,2 
ENP,ioos.station.NOAA.NDBC:MUKF1:1,2016-06-14T09:00:00Z,25.1060,-80.9420,1.0,29.97,2 
ENP,ioos.station.NOAA.NDBC:MUKF1:1,2016-06-14T11:00:00Z,25.1060,-80.9420,1.0,29.69,2 
ENP,ioos.station.NOAA.NDBC:MUKF1:1,2016-06-14T12:00:00Z,25.1060,-80.9420,1.0,29.7,2 
ENP,ioos.station.NOAA.NDBC:MUKF1:1,2016-06-14T13:00:00Z,25.1060,-80.9420,1.0,29.91,2 
ENP,ioos.station.NOAA.NDBC:MUKF1:1,2016-06-14T14:00:00Z,25.1060,-80.9420,1.0,30.5,2 
ENP,ioos.station.NOAA.NDBC:MUKF1:1,2016-06-14T15:00:00Z,25.1060,-80.9420,1.0,30.82,2 
ENP,ioos.station.NOAA.NDBC:MUKF1:1,2016-06-14T17:00:00Z,25.1060,-80.9420,1.0,31.24,2 
ENP,ioos.station.NOAA.NDBC:MUKF1:1,2016-06-14T18:00:00Z,25.1060,-80.9420,1.0,31.77,2 
ENP,ioos.station.NOAA.NDBC:MUKF1:1,2016-06-14T19:00:00Z,25.1060,-80.9420,1.0,32.97,2 
ENP,ioos.station.NOAA.NDBC:MUKF1:1,2016-06-14T20:00:00Z,25.1060,-80.9420,1.0,33.8,2 
ENP,ioos.station.NOAA.NDBC:MUKF1:1,2016-06-14T21:00:00Z,25.1060,-80.9420,1.0,34.55,2 
ENP,ioos.station.NOAA.NDBC:MUKF1:1,2016-06-14T22:00:00Z,25.1060,-80.9420,1.0,34.89,2 
ENP,ioos.station.NOAA.NDBC:MUKF1:1,2016-06-14T23:00:00Z,25.1060,-80.9420,1.0,34.75,2 
ENP,ioos.station.NOAA.NDBC:MUKF1:1,2016-06-15T00:00:00Z,25.1060,-80.9420,1.0,34.4,2 
ENP,ioos.station.NOAA.NDBC:MUKF1:1,2016-06-15T01:00:00Z,25.1060,-80.9420,1.0,33.89,2 